Regional Weather Roundup
Issued by NWS

Home | Current Version | Previous Version | Graphics & Text | Print | Product List | Glossary On
Versions: 1 2 3 4 5 6 7 8 9 10 11 12 13 14 15 16 17 18 19 20 21 22 23 24 25 26 27 28 29 30 31 32 33 34 35 36 37 38 39 40 41 42 43 44 45 46 47 48 49 50
000
ASUS43 KIND 291109
RWRIN

WEATHER ROUNDUP FOR INDIANA
NATIONAL WEATHER SERVICE INDIANAPOLIS IN
700 AM EDT FRI AUG 29 2014

NOTE: "FAIR" INDICATES FEW OR NO CLOUDS BELOW 12,000 FEET WITH NO
SIGNIFICANT WEATHER AND/OR OBSTRUCTIONS TO VISIBILITY.

* - STATION DOES NOT REPORT WEATHER SUCH AS PRECIPITATION OR FOG.

+ - STATION NOT QUALITY CONTROLLED BY THE NATIONAL WEATHER SERVICE.
    USE DATA WITH CAUTION...ESPECIALLY DEWPOINT AND RELATIVE
    HUMIDITY OBSERVATIONS.

INZ001>003-010>013-019-020-291200-
NORTHWEST INDIANA

CITY           SKY/WX    TMP DP  RH WIND       PRES   REMARKS
GARY /AIRPORT/ MOCLDY    72  64  78 SE10      29.99S
KNOX *+        CLOUDY    67  60  79 SE7       30.02R
LA PORTE +     CLOUDY    66  62  86 SE3       30.04S
MICHIGAN CITY+ CLOUDY    68  59  73 S6        30.02S
MONTICELLO +   MOCLDY    66  64  92 SE3       30.01S
RENSSELAER +   CLOUDY    68  66  94 SE5       30.01S
VALPARAISO     CLOUDY    67  62  84 SE8       30.03R

$$

LMZ046-743>745-291200-
SOUTHERN LAKE MICHIGAN

STATION/POSITION TIME  TEMP WIND        PRES
                       AIR  DIR/SP/G
                 (UTC) (F)  (DEG/KT/KT) (MB)
MICHIGAN CITY    1100   69  130/ 15/ 20   N/A

$$

INZ004-005-014>016-021>024-291200-
NORTH CENTRAL INDIANA

CITY           SKY/WX    TMP DP  RH WIND       PRES   REMARKS
ELKHART        CLOUDY    64  59  82 SE7       30.06
GOSHEN         CLOUDY    65  59  81 SE9       30.07R
LOGANSPORT +   PTCLDY    63  59  88 E7        30.04S
PERU/GRISSOM   CLEAR     64  64 100 SE6       30.04S
ROCHESTER +    MOCLDY    68  63  83 SE8       30.05S
SOUTH BEND     CLOUDY    68  59  73 SE10      30.05R
WARSAW +       MOCLDY    63  59  88 E6        30.06S

$$

INZ006>009-017-018-025>027-291200-
NORTHEAST INDIANA

CITY           SKY/WX    TMP DP  RH WIND       PRES   REMARKS
ANGOLA *+      MOCLDY    61  55  82 SE7       30.09F
AUBURN +       PTCLDY    61  55  82 E3        30.10R
FORT WAYNE     CLOUDY    61  58  90 E6        30.09R
HUNTINGTON +   CLEAR     61  59  94 E3        30.07R

$$

INZ028-029-035-036-043>045-051>053-291200-
WEST CENTRAL INDIANA

CITY           SKY/WX    TMP DP  RH WIND       PRES   REMARKS
GREENCASTLE +  MOCLDY    66  63  88 CALM      30.04S
LAFAYETTE      CLOUDY    69  63  81 SE6       30.01S
TERRE HAUTE    MOCLDY    71  67  87 E3        30.01S

$$

INZ030>032-037>040-046>048-054>057-064-065-291200-
CENTRAL INDIANA

CITY           SKY/WX    TMP DP  RH WIND       PRES   REMARKS
CP ATTERBURY + PTCLDY    64  61  88 CALM      30.06R
FRANKFORT +    MOCLDY    66  66 100 SE6       30.04F
INDIANAPOLIS   CLOUDY    68  62  81 E8        30.03S
-EAGLE CREEK   MOCLDY    68  61  78 SE5       30.04S
KOKOMO *+      CLEAR     64  61  88 SE8       30.05S
MARION +       CLEAR     64  59  85 SE6       30.06S
MT COMFORT *+  PTCLDY    66  66 100 SE5       30.07R
SHELBYVILLE    PTCLDY    67  62  84 E6        30.06R
ZIONSVILLE +   MOCLDY    68  61  79 SE5       30.06S

$$

INZ033-034-041-042-049-050-058-059-291200-
EAST CENTRAL INDIANA

CITY           SKY/WX    TMP DP  RH WIND       PRES   REMARKS
MUNCIE         PTCLDY    66  59  78 SE8       30.07R

$$

INZ060-061-067>069-081>083-085>088-291200-
SOUTHWEST INDIANA

CITY           SKY/WX    TMP DP  RH WIND       PRES   REMARKS
EVANSVILLE     CLEAR     74  71  91 CALM      29.99R FOG
WASHINGTON +   MOCLDY    73  72  98 E5        30.00R

$$

INZ062-063-066-070>080-084-089>092-291200-
SOUTH CENTRAL AND SOUTHEAST INDIANA

CITY           SKY/WX    TMP DP  RH WIND       PRES   REMARKS
BEDFORD +      MOCLDY    72  64  78 SE6       30.04R
BLOOMINGTON    MOCLDY    71  65  81 SE5       30.04R
NORTH VERNON + CLEAR     68  64  88 E5        30.06R
SEYMOUR +      PTCLDY    68  59  73 E5        30.04

$$



USA.gov is the U.S. government's official web portal to all federal, state and local government web resources and services.